Winnemucca, NV

3:25 PM PDT on March 22, 2017 (GMT -0700)
Winnemucca Municipal

Weather History for KWMC - March, 2012

Change the Weather History Date:

Tuesday, March 6, 2012

  Actual Average Record
Temperature  
Mean Temperature 34 °F 40 °F  
Max Temperature 51 °F 54 °F 72 °F (1972)
Min Temperature 17 °F 26 °F 7 °F (1955)
Degree Days  
Heating Degree Days 31 25  
Month to date heating degree days 187 156  
Since 1 July heating degree days 4825 4745  
Cooling Degree Days 0 0  
Month to date cooling degree days 0 0  
Year to date cooling degree days 0 0  
Moisture  
Dew Point 19 °F    
Average Humidity 56    
Maximum Humidity 92    
Minimum Humidity 19    
Precipitation  
Precipitation 0.09 in 0.03 in 0.77 in (2011)
Month to date precipitation 0.12 0.16  
Year to date precipitation 1.41 1.69  
Snow  
Snow 1.20 in 0.20 in 7.50 in (1952)
Month to date snowfall 1.4 0.7  
Since 1 July snowfall 18.3 16.7  
Snow Depth 0.00 in    
Sea Level Pressure  
Sea Level Pressure 29.78 in    
Wind  
Wind Speed 16 mph (NNW)    
Max Wind Speed 28 mph    
Max Gust Speed 35 mph    
Visibility 5 miles    
Events Fog , Snow    
T = Trace of Precipitation, MM = Missing Value Source: NWS Daily Summary

Daily Weather History Graph

Daily Weather History Graph

Search for Another Location

Airport or City:

Trip Planner

Search our weather history database for the weather conditions in past years. The results will help you decide how hot, cold, wet, or windy it might be!

Date:

Astronomy

Mar. 06, 2012 Rise Set
Actual Time 6:16 AM PST 5:48 PM PST
Civil Twilight 5:49 AM PST 6:16 PM PST
Nautical Twilight 5:17 AM PST 6:47 PM PST
Astronomical Twilight 4:45 AM PST 7:19 PM PST
Moon 4:20 PM PST (3/6) 4:55 AM PST (3/6)
Length of Visible Light 12h 26m
Length of Day
11h 32m
Waxing Gibbous, 97% of the Moon is Illuminated
Mar 6
Waxing Gibbous
Mar 8
Full
Mar 14
Last Quarter
Mar 22
New
Mar 30
First Quarter

Hourly Weather History & Observations

Time (PST) Temp. Windchill Dew Point Humidity Pressure Visibility Wind Dir Wind Speed Gust Speed Precip Events Conditions
12:56 AM 51.1 °F - 10.0 °F 19% 29.61 in 10.0 mi SW 18.4 mph 26.5 mph N/A   Clear
1:56 AM 50.0 °F - 15.1 °F 25% 29.58 in 10.0 mi SW 18.4 mph 31.1 mph N/A   Clear
2:56 AM 48.0 °F - 19.0 °F 32% 29.56 in 10.0 mi SW 16.1 mph 24.2 mph N/A   Scattered Clouds
3:56 AM 46.9 °F - 19.9 °F 34% 29.54 in 10.0 mi SW 13.8 mph 21.9 mph N/A   Overcast
4:56 AM 44.1 °F 39.0 °F 21.0 °F 40% 29.52 in 10.0 mi WSW 9.2 mph - N/A   Overcast
5:23 AM 33.8 °F 22.2 °F 28.4 °F 81% 29.65 in 4.0 mi NNW 20.7 mph 27.6 mph 0.00 in Snow Light Snow
5:39 AM 30.2 °F 18.5 °F 28.4 °F 93% 29.65 in 3.0 mi North 17.3 mph 33.4 mph 0.00 in Snow Light Snow
5:49 AM 30.2 °F 18.5 °F 28.4 °F 93% 29.65 in 2.5 mi NNW 17.3 mph 26.5 mph 0.02 in Snow Light Snow
5:56 AM 30.0 °F 18.7 °F 28.0 °F 92% 29.64 in 2.0 mi NNW 16.1 mph 26.5 mph 0.02 in Snow Light Snow
6:08 AM 30.2 °F 18.5 °F 28.4 °F 93% 29.66 in 1.2 mi NNW 17.3 mph 24.2 mph 0.01 in Snow Light Snow
6:27 AM 28.4 °F 16.6 °F 26.6 °F 93% 29.68 in 1.8 mi NNW 16.1 mph 23.0 mph 0.01 in Snow Light Snow
6:33 AM 28.4 °F 16.2 °F 26.6 °F 93% 29.69 in 1.2 mi NNW 17.3 mph 24.2 mph 0.02 in Snow Light Snow
6:56 AM 27.0 °F 13.5 °F 24.1 °F 89% 29.69 in 1.5 mi NNW 19.6 mph 29.9 mph 0.02 in Snow Light Snow
7:19 AM 26.6 °F 13.8 °F 24.8 °F 93% 29.71 in 1.5 mi NNW 17.3 mph 24.2 mph 0.00 in Snow Light Snow
7:27 AM 26.6 °F 13.8 °F 24.8 °F 93% 29.72 in 0.8 mi NNW 17.3 mph 26.5 mph 0.01 in Snow Light Snow
7:43 AM 28.4 °F 15.8 °F 24.8 °F 86% 29.73 in 1.5 mi NNW 18.4 mph 24.2 mph 0.01 in Snow Light Snow
7:48 AM 28.4 °F 15.4 °F 24.8 °F 86% 29.73 in 1.2 mi NNW 19.6 mph 24.2 mph 0.01 in Snow Light Snow
7:56 AM 27.0 °F 14.7 °F 24.1 °F 89% 29.72 in 0.5 mi NNW 16.1 mph - 0.01 in Fog , Snow Snow
8:06 AM 26.6 °F 14.7 °F 24.8 °F 93% 29.74 in 0.2 mi NNW 15.0 mph 25.3 mph 0.01 in Fog , Snow Snow
8:21 AM 26.6 °F 13.4 °F 23.0 °F 86% 29.74 in 0.5 mi NNW 18.4 mph 28.8 mph 0.02 in Fog , Snow Snow
8:56 AM 25.0 °F 8.9 °F 21.0 °F 85% 29.76 in 0.8 mi NNW 26.5 mph 34.5 mph 0.03 in Snow Light Snow
9:03 AM 24.8 °F 9.3 °F 21.2 °F 86% 29.77 in 1.0 mi NNW 24.2 mph 34.5 mph 0.00 in Snow Light Snow
9:17 AM 24.8 °F 10.3 °F 21.2 °F 86% 29.77 in 1.8 mi NNW 20.7 mph 32.2 mph 0.00 in Snow Light Snow
9:24 AM 24.8 °F 10.0 °F 21.2 °F 86% 29.78 in 2.0 mi NNW 21.9 mph 29.9 mph 0.00 in Snow Light Snow
9:31 AM 24.8 °F 11.1 °F 21.2 °F 86% 29.79 in 1.5 mi NNW 18.4 mph 28.8 mph 0.00 in Snow Light Snow
9:48 AM 24.8 °F 10.3 °F 19.4 °F 80% 29.80 in 1.2 mi North 20.7 mph 29.9 mph 0.00 in Snow Light Snow
9:56 AM 24.1 °F 10.1 °F 21.0 °F 88% 29.82 in 1.0 mi North 18.4 mph 27.6 mph 0.00 in Snow Light Snow
10:11 AM 24.8 °F 10.7 °F 21.2 °F 86% 29.82 in 0.8 mi North 19.6 mph 27.6 mph 0.00 in Snow Light Snow
10:26 AM 24.8 °F 11.9 °F 21.2 °F 86% 29.83 in 0.5 mi North 16.1 mph 27.6 mph 0.01 in Fog , Snow Light Snow
10:41 AM 26.6 °F 15.7 °F 21.2 °F 80% 29.83 in 1.5 mi North 12.7 mph - 0.01 in Snow Light Snow
10:47 AM 26.6 °F 14.7 °F 19.4 °F 74% 29.84 in 3.0 mi North 15.0 mph - 0.01 in Snow Light Snow
10:56 AM 27.0 °F 15.2 °F 17.1 °F 66% 29.83 in 9.0 mi North 15.0 mph 26.5 mph 0.01 in   Overcast
11:08 AM 28.4 °F 14.7 °F 17.6 °F 64% 29.83 in 10.0 mi NNW 21.9 mph 28.8 mph N/A   Overcast
12:56 PM 30.9 °F 18.7 °F 18.0 °F 59% 29.81 in 10.0 mi NNW 19.6 mph 25.3 mph N/A   Overcast
1:56 PM 30.0 °F 16.6 °F 17.1 °F 59% 29.82 in 10.0 mi NNW 23.0 mph 31.1 mph 0.00 in   Mostly Cloudy
3:56 PM 28.9 °F 16.1 °F 9.0 °F 43% 29.86 in 9.0 mi NNW 19.6 mph 28.8 mph 0.00 in   Partly Cloudy
4:56 PM 28.0 °F 15.3 °F 9.0 °F 45% 29.89 in 10.0 mi NNW 18.4 mph 23.0 mph N/A   Partly Cloudy
5:56 PM 25.0 °F 13.6 °F 7.0 °F 46% 29.94 in 10.0 mi NNW 12.7 mph - N/A   Mostly Cloudy
6:56 PM 24.1 °F 14.4 °F 7.0 °F 48% 29.99 in 10.0 mi North 9.2 mph - N/A   Partly Cloudy
7:56 PM 19.9 °F 11.1 °F 10.0 °F 65% 30.02 in 10.0 mi NNW 6.9 mph - N/A   Partly Cloudy
8:56 PM 18.0 °F 6.9 °F 10.0 °F 71% 30.05 in 10.0 mi WNW 9.2 mph - N/A   Mostly Cloudy
9:56 PM 21.0 °F 8.1 °F 10.9 °F 65% 30.08 in 10.0 mi NW 13.8 mph 19.6 mph N/A   Mostly Cloudy
10:56 PM 18.0 °F 6.1 °F 9.0 °F 68% 30.09 in 10.0 mi NW 10.4 mph - N/A   Clear
11:56 PM 19.9 °F 9.3 °F 9.0 °F 62% 30.09 in 10.0 mi North 9.2 mph - N/A   Clear